This is the latest recevied weather packets stored in our database for station/object WW6Q. If no packets are shown the sender has not sent any weather packets the latest 10 day(s).
| Time | Temp. | Humidity | Pressure | Rain* | Wind** | Luminosity | Snow |
|---|---|---|---|---|---|---|---|
| 1788379290 | 35.56° C | 49% | 1014.2 hPa | 0 mm | - | 570 W/m² | - |
| 1788378985 | 35° C | 51% | 1014.2 hPa | 0 mm | - | 589 W/m² | - |
| 1788378685 | 35° C | 53% | 1014.1 hPa | 0 mm | - | 534 W/m² | - |
| 1788378383 | 34.44° C | 52% | 1014.3 hPa | 0 mm | - | 616 W/m² | - |
| 1788378079 | 34.44° C | 51% | 1014.2 hPa | 0 mm | - | 548 W/m² | - |
| 1788377775 | 34.44° C | 54% | 1014.5 hPa | 0 mm | - | 593 W/m² | - |
| 1788377474 | 34.44° C | 51% | 1014.5 hPa | 0 mm | - | 617 W/m² | - |
| 1788377173 | 34.44° C | 52% | 1014.5 hPa | 0 mm | - | 654 W/m² | - |
| 1788376872 | 33.89° C | 52% | 1014.5 hPa | 0 mm | - | 662 W/m² | - |
| 1788376568 | 33.89° C | 51% | 1014.5 hPa | 0 mm | - | 173 W/m² | - |
| 1788376268 | 33.89° C | 51% | 1014.7 hPa | 0 mm | - | 680 W/m² | - |
| 1788375963 | 34.44° C | 52% | 1014.5 hPa | 0 mm | - | 666 W/m² | - |
| 1788375658 | 34.44° C | 51% | 1014.7 hPa | 0 mm | - | 662 W/m² | - |
| 1788375354 | 33.89° C | 52% | 1014.7 hPa | 0 mm | - | 672 W/m² | - |
| 1788375050 | 33.89° C | 51% | 1014.6 hPa | 0 mm | - | 682 W/m² | - |
| 1788374744 | 33.89° C | 50% | 1014.8 hPa | 0 mm | - | 679 W/m² | - |
| 1788374440 | 33.89° C | 50% | 1014.8 hPa | 0 mm | - | 687 W/m² | - |
| 1788374136 | 34.44° C | 50% | 1014.6 hPa | 0 mm | - | 680 W/m² | - |
| 1788373832 | 34.44° C | 50% | 1014.9 hPa | 0 mm | - | 702 W/m² | - |
| 1788373528 | 34.44° C | 51% | 1014.9 hPa | 0 mm | - | 706 W/m² | - |
| 1788373224 | 33.89° C | 52% | 1014.8 hPa | 0 mm | - | 711 W/m² | - |
| 1788372921 | 33.33° C | 50% | 1015 hPa | 0 mm | - | 714 W/m² | - |
| 1788372614 | 33.33° C | 52% | 1015 hPa | 0 mm | - | 709 W/m² | - |
| 1788372314 | 33.33° C | 55% | 1015.1 hPa | 0 mm | - | 719 W/m² | - |
| 1788372010 | 33.33° C | 54% | 1015 hPa | 0 mm | - | 724 W/m² | - |
* Rain latest hour (hover to see other rain measurements)
** Current wind speed in m/s (hover to see current wind gust speed)